Flag for Western Sahara Weather past 2 weeks in El Aaiún, Western Sahara

Now
84 °F

Broken clouds.


Feels Like: 87 °F
Forecast: 71 / 87 °F
Wind: 9 mph from Northeast

Location: Laayoune/Hassan Isl

Current Time: Sep 21, 2014 at 1:53:55 PM

Latest Report: Sep 21, 2014 at 1:00 PM


Visibility: N/A

Pressure: 30.01 "Hg

Humidity: 55%

Dew point: 66 °F

Location of El AaiúnLocation

Historic Weather in El Aaiún — Graph

°F

El Aaiún temperature yesterday

Maximum temperature yesterday: 86 °F (at 2:00 PM)
Minimum temperature yesterday: 70 °F (at 3:00 AM)
Average temperature yesterday: 75 °F

Past Weeks' High & Low Weather Summary

 TemperatureHumidityPressure
High95 °F (Sep 15, 4:00 PM)100% (Sep 8, 5:44 AM)30.09 "Hg (Sep 8, 5:44 AM)
Low68 °F (Sep 9, 6:00 AM)28% (Sep 15, 4:00 PM)29.86 "Hg (Sep 15, 5:00 PM)
Average77 °F70%29.98 "Hg
* Reported Sep 6 1:00 PM — Sep 21 1:00 PM, El Aaiún, Weather by CustomWeather, © 2014

Note: Actual official high and low records may vary slightly from our data, if they occured in-between our weather recording intervals... More about our weather records

Advertising

El Aaiún weather history for previous 24 hours

 ConditionsComfort  
Time TempWeatherWind HumidityBarometerVisibility
1:00 PM
Sep 21
84 °FBroken clouds.9 mph55%30.01 "HgN/A
12:00 PM79 °FBroken clouds.10 mph61%30.01 "HgN/A
11:00 AM77 °FWarm.10 mph74%30.04 "HgN/A
10:00 AM73 °FBroken clouds.9 mph83%30.01 "HgN/A
9:00 AM72 °FPassing clouds.8 mph94%N/AN/A
8:00 AM72 °FPassing clouds.7 mph88%29.98 "HgN/A
7:00 AM70 °FPassing clouds.8 mph94%29.98 "HgN/A
6:00 AM72 °FPartly cloudy.8 mph88%29.95 "HgN/A
5:00 AM72 °FClear.9 mph88%29.95 "Hg10 mi
4:00 AM70 °FMild.9 mph88%29.98 "HgN/A
3:00 AM72 °FMild.9 mph83%29.98 "HgN/A
2:00 AM73 °FClear.9 mph74%29.98 "Hg10 mi
1:00 AM73 °FClear.9 mph69%29.98 "Hg10 mi
12:00 AM75 °FClear.9 mph65%29.98 "Hg10 mi
11:00 PM
Sep 20
75 °FClear.9 mph65%30.01 "Hg10 mi
10:00 PM75 °FClear.10 mph69%29.98 "Hg10 mi
9:00 PM79 °FSunny.9 mph58%29.95 "Hg10 mi
8:00 PM79 °FSunny.13 mph54%29.92 "Hg10 mi
7:00 PM82 °FSunny.15 mph48%29.92 "Hg10 mi
2:00 PM86 °FWarm.12 mph40%29.98 "HgN/A
1:00 PM84 °FSunny.12 mph40%29.98 "Hg10 mi
Weather by CustomWeather, © 2014

See weather overviewHow to use our weather pages